This is the latest recevied weather packets stored in our database for station/object K0NV. If no packets are shown the sender has not sent any weather packets the latest 10 day(s).
| Time | Temp. | Humidity | Pressure | Rain* | Wind** | Luminosity | Snow |
|---|---|---|---|---|---|---|---|
| 1777416790 | 16.11° C | 99% | 1012 hPa | 0 mm | - | 33 W/m² | - |
| 1777416485 | 16.11° C | 99% | 1011.9 hPa | 0 mm | - | 25 W/m² | - |
| 1777416181 | 16.11° C | 99% | 1011.4 hPa | 0 mm | - | 77 W/m² | - |
| 1777415875 | 16.11° C | 99% | 1012.2 hPa | 0 mm | - | 9 W/m² | - |
| 1777415572 | 16.11° C | 99% | 1011.9 hPa | 0 mm | - | 29 W/m² | - |
| 1777415267 | 16.11° C | 99% | 1011.5 hPa | 0 mm | - | 45 W/m² | - |
| 1777414962 | 16.11° C | 99% | 1011.5 hPa | 0 mm | - | 85 W/m² | - |
| 1777414662 | 16.11° C | 99% | 1011.2 hPa | 0 mm | - | 234 W/m² | - |
| 1777414358 | 15.56° C | 99% | 1011.4 hPa | 0 mm | - | 180 W/m² | - |
| 1777414053 | 15.56° C | 99% | 1011.2 hPa | 0 mm | - | 395 W/m² | - |
| 1777413752 | 15.56° C | 99% | 1010.4 hPa | 0 mm | - | 170 W/m² | - |
| 1777413449 | 15° C | 99% | 1010.3 hPa | 0 mm | - | 358 W/m² | - |
| 1777413145 | 15° C | 99% | 1010.8 hPa | 0 mm | - | 478 W/m² | - |
| 1777412841 | 15° C | 99% | 1010.9 hPa | 0 mm | - | 383 W/m² | - |
| 1777412540 | 15° C | 99% | 1011.6 hPa | 0 mm | - | 504 W/m² | - |
| 1777412237 | 15° C | 99% | 1012.1 hPa | 0 mm | - | 102 W/m² | - |
| 1777411934 | 15° C | 99% | 1012.7 hPa | 0 mm | - | 48 W/m² | - |
| 1777411632 | 15° C | 99% | 1012.7 hPa | 0 mm | - | 85 W/m² | - |
| 1777411328 | 15° C | 99% | 1012.6 hPa | 0 mm | - | 119 W/m² | - |
| 1777411027 | 15° C | 99% | 1012.7 hPa | 0 mm | - | 110 W/m² | - |
| 1777410721 | 15° C | 99% | 1013 hPa | 0 mm | - | 112 W/m² | - |
| 1777410416 | 15° C | 99% | 1012.9 hPa | 0 mm | - | 206 W/m² | - |
| 1777410115 | 15° C | 99% | 1013 hPa | 0 mm | - | 184 W/m² | - |
| 1777409810 | 15° C | 99% | 1012.8 hPa | 0 mm | - | 184 W/m² | - |
| 1777409506 | 15° C | 99% | 1013 hPa | 0 mm | - | 263 W/m² | - |
* Rain latest hour (hover to see other rain measurements)
** Current wind speed in m/s (hover to see current wind gust speed)